Der Flugplatz ist nur beschränkt benutzbar ! 

Keine Landungen auswärtiger Flugzeuge. Keine Platzrunden!!!

123.15 MHz
RWY 05/23

flüger beizli - Öffnungszeiten
Freitag ab 16:00
Samstag +Sonntag ab 11:00
Bei schönem Wetter öffnen wir früher! Tel.: 079 234 07 74

Herzlich willkommen auf der Homepage des Flugplatz Biel-Kappelen

Wir freuen uns über Ihren Besuch auf unserem schönen Flugplatz im Berner Seeland. Ob zu Fuss, per Velo, Motorrad, Auto oder Flugzeug Sie sind uns jederzeit herzlich willkommen. 


 

Wetter Kappelen

 


 

[source: ADDS]
METAR
LSZG 191620Z 05009KT 7000 OVC016 M04/M07 Q1030 NOSIG =
TAF
TAF LSZG 191425Z 1915/1924 05008KT 8000 BKN017 PROB40 TEMPO 1918/1924 4500 BKN014 =
SR / SS: 07:10 / 16:15 UTC ( 2017-01-19)

 


 

Besucherzähler

HeuteHeute61
Seit BeginnSeit Beginn79294
Guests 2

Flugplatz Biel-Kappelen LSZP - 123.15MHz - 032 384 46 84

Email: Diese E-Mail-Adresse ist vor Spambots geschützt! Zur Anzeige muss JavaScript eingeschaltet sein!
www.lszp.ch
2017 © by mb

Zum Anfang